When you browse on this site, cookies collect data to enhance your experience and personalize the content and advertising you see.
Visit our Privacy Policy to learn more. By continuing to use the site, you agree to this use of cookies and data.
  • In Lithuania
  • List of Countries
  • For 7 days
  • Water Temperature
  • Weather Map
  • Weather Widgets
  • user-avatar
    Login

    Hourly Weather Choszczewo

    Today, 24 August, Saturday

    Time Temperature Precipitation Wind Pressure Humidity
    00:00 +16°C° 0 mm 2 mps 755 mmHg 68%
    01:00 +15°C° 0 mm 2 mps 755 mmHg 69%
    02:00 +15°C° 0 mm 2 mps 755 mmHg 72%
    03:00 +15°C° 0 mm 2 mps 755 mmHg 75%
    04:00 +14°C° 0 mm 2 mps 755 mmHg 78%
    05:00 +16°C° 0 mm 2 mps 755 mmHg 75%
    06:00 +17°C° 0 mm 2 mps 755 mmHg 73%
    07:00 +20°C° 0 mm 1 mps 756 mmHg 69%
    08:00 +22°C° 0 mm 1 mps 756 mmHg 63%
    09:00 +23°C° 0 mm 1 mps 756 mmHg 57%
    10:00 +25°C° 0 mm 1 mps 756 mmHg 51%
    11:00 +26°C° 0 mm 1 mps 756 mmHg 48%
    12:00 +27°C° 0 mm 1 mps 755 mmHg 46%
    13:00 +26°C° 0 mm 0 mps 755 mmHg 43%
    14:00 +27°C° 0 mm 1 mps 755 mmHg 44%
    15:00 +27°C° 0 mm 1 mps 755 mmHg 45%
    16:00 +27°C° 0 mm 1 mps 755 mmHg 45%
    17:00 +25°C° 0 mm 1 mps 755 mmHg 54%
    18:00 +23°C° 0 mm 2 mps 755 mmHg 62%
    19:00 +20°C° 0 mm 2 mps 754 mmHg 70%
    20:00 +19°C° 0 mm 2 mps 755 mmHg 73%
    21:00 +18°C° 0 mm 2 mps 755 mmHg 76%
    22:00 +18°C° 0 mm 1 mps 755 mmHg 79%
    23:00 +18°C° 0 mm 1 mps 755 mmHg 80%

    Tomorrow, 25 August, Sunday

    Time Temperature Precipitation Wind Pressure Humidity
    00:00 +18°C° 0 mm 1 mps 755 mmHg 81%
    01:00 +16°C° 0 mm 1 mps 755 mmHg 82%
    02:00 +16°C° 0 mm 1 mps 755 mmHg 83%
    03:00 +16°C° 0 mm 1 mps 755 mmHg 85%
    04:00 +15°C° 0 mm 1 mps 755 mmHg 87%
    05:00 +18°C° 0 mm 1 mps 755 mmHg 82%
    06:00 +18°C° 0 mm 2 mps 755 mmHg 77%
    07:00 +19°C° 0 mm 2 mps 755 mmHg 73%
    08:00 +21°C° 0 mm 2 mps 755 mmHg 66%
    09:00 +23°C° 0 mm 2 mps 755 mmHg 60%
    10:00 +25°C° 0 mm 2 mps 755 mmHg 54%
    11:00 +26°C° 0 mm 2 mps 755 mmHg 51%
    12:00 +27°C° 0 mm 3 mps 755 mmHg 49%
    13:00 +27°C° 0 mm 3 mps 754 mmHg 47%
    14:00 +27°C° 0 mm 3 mps 754 mmHg 48%
    15:00 +27°C° 0 mm 3 mps 754 mmHg 50%
    16:00 +27°C° 0 mm 3 mps 754 mmHg 51%
    17:00 +25°C° 0 mm 3 mps 754 mmHg 58%
    18:00 +23°C° 0 mm 2 mps 754 mmHg 65%
    19:00 +20°C° 0 mm 2 mps 754 mmHg 72%
    20:00 +19°C° 0 mm 2 mps 754 mmHg 74%
    21:00 +19°C° 0 mm 2 mps 754 mmHg 77%
    22:00 +18°C° 0 mm 2 mps 754 mmHg 80%
    23:00 +17°C° 0 mm 2 mps 754 mmHg 81%

    Day after tomorrow, 26 August, Monday

    Time Temperature Precipitation Wind Pressure Humidity
    00:00 +17°C° 0 mm 2 mps 754 mmHg 82%
    01:00 +16°C° 0 mm 2 mps 754 mmHg 84%
    02:00 +16°C° 0 mm 2 mps 754 mmHg 85%
    03:00 +15°C° 0 mm 2 mps 754 mmHg 86%
    04:00 +15°C° 0 mm 2 mps 753 mmHg 87%
    05:00 +16°C° 0 mm 2 mps 753 mmHg 83%
    06:00 +17°C° 0 mm 3 mps 753 mmHg 79%
    07:00 +19°C° 0 mm 3 mps 753 mmHg 75%
    08:00 +21°C° 0 mm 3 mps 753 mmHg 68%
    09:00 +24°C° 0 mm 3 mps 753 mmHg 61%
    10:00 +26°C° 0 mm 4 mps 753 mmHg 53%
    11:00 +26°C° 0 mm 4 mps 753 mmHg 51%
    12:00 +27°C° 0 mm 4 mps 753 mmHg 48%
    13:00 +28°C° 0 mm 4 mps 753 mmHg 46%
    14:00 +27°C° 0 mm 4 mps 752 mmHg 47%
    15:00 +27°C° 0 mm 3 mps 752 mmHg 49%
    16:00 +27°C° 0 mm 3 mps 752 mmHg 50%
    17:00 +25°C° 0 mm 3 mps 752 mmHg 57%
    18:00 +24°C° 0 mm 2 mps 752 mmHg 63%
    19:00 +21°C° 0 mm 2 mps 751 mmHg 69%
    20:00 +20°C° 0 mm 2 mps 752 mmHg 72%
    21:00 +19°C° 0 mm 2 mps 752 mmHg 74%
    22:00 +19°C° 0 mm 2 mps 752 mmHg 76%
    23:00 +18°C° 0 mm 2 mps 752 mmHg 79%

    27 August, Tuesday

    Time Temperature Precipitation Wind Pressure Humidity
    00:00 +18°C° 0 mm 3 mps 752 mmHg 82%
    01:00 +17°C° 0 mm 3 mps 752 mmHg 85%
    02:00 +17°C° 0 mm 3 mps 752 mmHg 88%
    03:00 +17°C° 0 mm 3 mps 752 mmHg 91%
    04:00 +17°C° 0 mm 3 mps 752 mmHg 94%
    05:00 +18°C° 0 mm 3 mps 752 mmHg 88%
    06:00 +19°C° 0 mm 3 mps 752 mmHg 83%
    07:00 +20°C° 0 mm 3 mps 752 mmHg 78%
    08:00 +22°C° 0 mm 3 mps 752 mmHg 71%
    09:00 +25°C° 0 mm 4 mps 752 mmHg 64%
    10:00 +27°C° 0 mm 4 mps 752 mmHg 57%
    11:00 +28°C° 0 mm 4 mps 752 mmHg 54%
    12:00 +28°C° 0 mm 4 mps 752 mmHg 52%
    13:00 +29°C° 0 mm 3 mps 752 mmHg 50%
    14:00 +29°C° 0 mm 3 mps 752 mmHg 51%
    15:00 +29°C° 0 mm 3 mps 751 mmHg 52%
    16:00 +29°C° 0 mm 3 mps 751 mmHg 53%
    17:00 +27°C° 0 mm 3 mps 751 mmHg 59%
    18:00 +25°C° 0 mm 3 mps 751 mmHg 65%
    19:00 +22°C° 0 mm 3 mps 751 mmHg 71%
    20:00 +21°C° 0 mm 3 mps 751 mmHg 73%
    21:00 +20°C° 0 mm 3 mps 752 mmHg 75%
    22:00 +19°C° 0 mm 3 mps 752 mmHg 78%
    23:00 +19°C° 0 mm 3 mps 752 mmHg 80%

    28 August, Wednesday

    Time Temperature Precipitation Wind Pressure Humidity
    00:00 +18°C° 0 mm 3 mps 752 mmHg 82%
    01:00 +18°C° 0 mm 3 mps 752 mmHg 84%
    02:00 +18°C° 0 mm 3 mps 752 mmHg 85%
    03:00 +18°C° 0 mm 3 mps 751 mmHg 86%
    04:00 +17°C° 0 mm 3 mps 751 mmHg 87%
    05:00 +18°C° 0 mm 3 mps 751 mmHg 84%
    06:00 +19°C° 0 mm 3 mps 751 mmHg 80%
    07:00 +20°C° 0 mm 4 mps 751 mmHg 76%
    08:00 +22°C° 0 mm 4 mps 751 mmHg 69%
    09:00 +25°C° 0 mm 4 mps 751 mmHg 63%
    10:00 +27°C° 0 mm 5 mps 751 mmHg 56%
    11:00 +27°C° 0 mm 5 mps 751 mmHg 53%
    12:00 +28°C° 0 mm 5 mps 751 mmHg 51%
    13:00 +29°C° 0 mm 5 mps 750 mmHg 48%
    14:00 +28°C° 0 mm 5 mps 750 mmHg 50%
    15:00 +28°C° 0 mm 4 mps 750 mmHg 51%
    16:00 +28°C° 0 mm 4 mps 750 mmHg 52%
    17:00 +26°C° 0 mm 4 mps 750 mmHg 59%
    18:00 +23°C° 0 mm 4 mps 750 mmHg 66%
    19:00 +22°C° 0 mm 4 mps 749 mmHg 73%
    20:00 +21°C° 0 mm 4 mps 750 mmHg 74%
    21:00 +21°C° 0 mm 5 mps 750 mmHg 76%
    22:00 +20°C° 0 mm 5 mps 750 mmHg 78%
    23:00 +20°C° 0 mm 5 mps 750 mmHg 79%

    29 August, Thursday

    Time Temperature Precipitation Wind Pressure Humidity
    00:00 +19°C° 0 mm 5 mps 750 mmHg 81%
    01:00 +17°C° 0 mm 5 mps 750 mmHg 83%
    02:00 +17°C° 0 mm 5 mps 750 mmHg 81%
    03:00 +16°C° 0 mm 5 mps 750 mmHg 79%
    04:00 +16°C° 0 mm 5 mps 750 mmHg 77%
    05:00 +16°C° 0 mm 5 mps 749 mmHg 76%
    06:00 +17°C° 0 mm 5 mps 749 mmHg 74%
    07:00 +17°C° 0 mm 5 mps 749 mmHg 72%
    08:00 +20°C° 0 mm 6 mps 749 mmHg 68%
    09:00 +21°C° 0 mm 6 mps 749 mmHg 63%
    10:00 +23°C° 0 mm 6 mps 750 mmHg 59%
    11:00 +24°C° 0 mm 6 mps 749 mmHg 56%
    12:00 +26°C° 0 mm 6 mps 749 mmHg 53%
    13:00 +27°C° 0 mm 6 mps 749 mmHg 51%
    14:00 +27°C° 0 mm 6 mps 749 mmHg 52%
    15:00 +26°C° 0 mm 6 mps 749 mmHg 53%
    16:00 +26°C° 0 mm 6 mps 749 mmHg 55%
    17:00 +23°C° 0 mm 6 mps 749 mmHg 59%
    18:00 +22°C° 0 mm 5 mps 749 mmHg 62%
    19:00 +20°C° 0 mm 5 mps 749 mmHg 66%
    20:00 +19°C° 0 mm 5 mps 749 mmHg 67%
    21:00 +19°C° 0 mm 6 mps 749 mmHg 68%
    22:00 +17°C° 0 mm 6 mps 749 mmHg 69%
    23:00 +16°C° 0 mm 6 mps 749 mmHg 68%
    Show more